Regional Weather Roundup
Issued by NWS

Home | Current Version | Previous Version | Graphics & Text | Print | Product List | Glossary On
Versions: 1 2 3 4 5 6 7 8 9 10 11 12 13 14 15 16 17 18 19 20 21 22 23 24 25 26 27 28 29 30 31 32 33 34 35 36 37 38 39 40 41 42 43 44 45 46 47 48 49 50
000
ASUS43 KOAX 241510
RWRNE

WEATHER ROUNDUP FOR NEBRASKA
NATIONAL WEATHER SERVICE OMAHA NE
1000 AM CDT MON JUL 24 2017

NOTES: SATELLITE DATA IS BEING USED TO AUGMENT CLOUD COVER ABOVE
       12000 FEET.
       "FAIR" INDICATES FEW OR NO CLOUDS BELOW 12,000 FEET WITH NO
       SIGNIFICANT WEATHER AND/OR OBSTRUCTIONS TO VISIBILITY.


NEZ001>004-019>022-054>056-241600-
NEBRASKA PANHANDLE

CITY           SKY/WX    TMP DP  RH WIND       PRES   REMARKS
SCOTTSBLUFF    SUNNY     83  58  42 SE9       29.97F
ALLIANCE       SUNNY     83  60  45 S22       29.98S
CHADRON        SUNNY     83  57  41 S17       29.90F
GORDON         FAIR      80  62  55 SW21      29.94F
KIMBALL        SUNNY     80  58  46 SW14      30.07S
SIDNEY         SUNNY     81  60  48 SW16G26   30.06R
$$

NEZ057>060-069>072-079>082-241600-
SOUTHWEST NEBRASKA

CITY           SKY/WX    TMP DP  RH WIND       PRES   REMARKS
NORTH PLATTE   SUNNY     79  66  64 S7        30.01F
IMPERIAL       SUNNY     82  62  50 SW15G22   30.03F
LEXINGTON      SUNNY     77  67  70 S10       30.03S
MCCOOK         SUNNY     79  65  62 S5        30.02F
OGALLALA       SUNNY     82  64  54 SW10      30.02S
$$

NEZ005>010-023>029-035>040-094-241600-
NORTH CENTRAL NEBRASKA

CITY           SKY/WX    TMP DP  RH WIND       PRES   REMARKS
VALENTINE      SUNNY     80  60  50 S13       29.96F
AINSWORTH      SUNNY     78  62  57 S16       29.98F
BROKEN BOW     SUNNY     77  63  61 S14G22    30.02F
O`NEILL        SUNNY     75  63  67 SE16      30.01F
ORD            SUNNY     76  60  57 S13G21    30.01F
THEDFORD       SUNNY     80  64  57 S13G18    30.00F
$$

NEZ041-046>049-061>064-073>077-083>087-241600-
SOUTH CENTRAL NEBRASKA

CITY           SKY/WX    TMP DP  RH WIND       PRES   REMARKS
GRAND ISLAND   SUNNY     75  65  70 S10       30.03F
AURORA         SUNNY     74  66  78 SE12      30.03F
HASTINGS       MOSUNNY   75  63  66 S12       30.05S
HEBRON         SUNNY     80  66  62 SE7       30.02F
HOLDREGE       SUNNY     75  66  72 S9        30.04S
KEARNEY        SUNNY     76  66  71 S12       30.03F
YORK           SUNNY     73  64  73 SE8       30.04S
$$

NEZ011>018-030>034-042>045-241600-
NORTHEAST NEBRASKA

CITY           SKY/WX    TMP DP  RH WIND       PRES   REMARKS
NORFOLK        SUNNY     75  60  59 S9        30.03S
ALBION         SUNNY     73  64  72 SE9       30.03F
BLAIR          SUNNY     74  62  68 E7        30.04F
COLUMBUS       SUNNY     74  63  68 SE7       30.04F
FREMONT        SUNNY     73  61  66 SE6       30.04F
TEKAMAH        MOSUNNY   72  62  71 VRB7      30.04S
WAYNE          SUNNY     73  65  74 SE9       30.03F
$$

NEZ050>053-065>068-078-088>093-241600-
SOUTHEAST NEBRASKA

CITY           SKY/WX    TMP DP  RH WIND       PRES   REMARKS
LINCOLN        SUNNY     76  63  64 SE9       30.04F
OMAHA EPPLEY   MOSUNNY   75  61  61 SE9       30.04S
BEATRICE       SUNNY     77  65  66 SE7       30.03S
FALLS CITY     SUNNY     75  65  70 E5        30.03S
NEBRASKA CITY  SUNNY     73  66  78 SE5       30.05S
PLATTSMOUTH    MOSUNNY   73  62  69 SE7       30.04F
$$

NEZ044-045-051>053-067-241600-
OMAHA AREA

CITY           SKY/WX    TMP DP  RH WIND       PRES   REMARKS
OMAHA EPPLEY   MOSUNNY   75  61  61 SE9       30.04S
BLAIR          SUNNY     74  62  68 E7        30.04F
FREMONT        SUNNY     73  61  66 SE6       30.04F
MILLARD        SUNNY     77  63  62 SE6       30.03F
OFFUTT AFB     MOSUNNY   75  61  61 VRB6      30.03F
PLATTSMOUTH    MOSUNNY   73  62  69 SE7       30.04F
WAHOO          FAIR      73  62  67 SE10      30.04F
$$



USA.gov is the U.S. government's official web portal to all federal, state and local government web resources and services.